Location: Newark
(48.1281°N, 2.1556°W)
Time: 23:15:03
(UTC+00:00)

Envisat - Pass Details

Date: 22 November 2019
Orbit: 764 x 766 km, 98.1° (Epoch: 15 December)

Event Time Altitude Azimuth Distance (km) Brightness Sun altitude
Rises 05:47:29 0° 27° (NNE) 3,243 6.4 -16.0°
Reaches altitude 10° 05:50:34 10° 47° (NE) 2,311 5.9 -15.5°
Maximum altitude 05:53:58 18° 89° (E) 1,819 6.0 -14.9°
Drops below altitude 10° 05:57:22 10° 132° (SE) 2,298 6.5 -14.4°
Sets 06:00:24 0° 151° (SSE) 3,218 6.9 -13.9°
